CES7866 YBAS-WBKW

Flight info

Callsign CES7866
Flight time N/A
Altitude 34000
Route MINIM1 SCOTI J251 DN A461 AMN W55 MWB A211 BAXAL
Aircraft B738/L-SDE3FGHIRWY/LB1

Departure

Time 2026-04-11 06:54
Airport Alice Springs Airport (YBAS)

Arrival

Time N/A
Airport Tawau Airport (WBKW)
Time Latitude Longitude Altitude Speed Heading
2026-04-11 06:54 -23.67958 133.83637 10934 ft 329 kts 319°
2026-04-11 06:54 -23.66164 133.81959 11261 ft 352 kts 319°
2026-04-11 06:54 -23.64250 133.80177 11539 ft 374 kts 319°
2026-04-11 06:55 -23.62210 133.78279 11840 ft 393 kts 319°
2026-04-11 06:55 -23.60109 133.76323 12460 ft 401 kts 319°
2026-04-11 06:55 -23.57984 133.74336 13144 ft 407 kts 319°
2026-04-11 06:55 -23.55833 133.72319 13849 ft 412 kts 319°
2026-04-11 06:56 -23.53642 133.70268 14555 ft 416 kts 319°
2026-04-11 06:56 -23.51436 133.68202 15240 ft 420 kts 319°
2026-04-11 06:56 -23.49211 133.66119 15898 ft 424 kts 319°
2026-04-11 06:56 -23.46984 133.64037 16529 ft 428 kts 319°
2026-04-11 06:57 -23.44712 133.61909 17149 ft 432 kts 319°
2026-04-11 06:57 -23.42431 133.59773 17744 ft 435 kts 319°
2026-04-11 06:57 -23.40131 133.57622 18327 ft 439 kts 319°
2026-04-11 06:57 -23.37794 133.55434 18893 ft 443 kts 319°
2026-04-11 06:58 -23.35440 133.53232 19443 ft 446 kts 319°
2026-04-11 06:58 -23.33101 133.51045 19969 ft 450 kts 319°
2026-04-11 06:58 -23.30692 133.48795 20489 ft 453 kts 319°
2026-04-11 06:58 -23.28327 133.46584 20975 ft 456 kts 319°
2026-04-11 06:59 -23.25886 133.44299 21455 ft 460 kts 319°
2026-04-11 06:59 -23.23476 133.42044 21912 ft 463 kts 319°
2026-04-11 06:59 -23.21026 133.39751 22357 ft 466 kts 319°
2026-04-11 06:59 -23.18568 133.37450 22786 ft 469 kts 319°
2026-04-11 07:00 -23.16073 133.35112 23205 ft 471 kts 319°
2026-04-11 07:00 -23.13585 133.32781 23608 ft 474 kts 319°
2026-04-11 07:00 -23.11098 133.30449 23997 ft 477 kts 319°
2026-04-11 07:00 -23.08588 133.28098 24377 ft 480 kts 319°
2026-04-11 07:01 -23.06032 133.25700 24751 ft 482 kts 319°
2026-04-11 07:01 -23.03505 133.23331 25109 ft 485 kts 319°
2026-04-11 07:01 -23.00958 133.20941 25463 ft 487 kts 319°
2026-04-11 07:01 -22.98389 133.18532 25863 ft 488 kts 319°
2026-04-11 07:02 -22.95826 133.16127 26284 ft 488 kts 319°
2026-04-11 07:02 -22.93252 133.13713 26717 ft 488 kts 319°
2026-04-11 07:02 -22.90682 133.11302 27153 ft 488 kts 319°
2026-04-11 07:02 -22.88089 133.08867 27593 ft 487 kts 319°
2026-04-11 07:03 -22.85530 133.06461 28028 ft 486 kts 319°
2026-04-11 07:03 -22.83002 133.04083 28453 ft 486 kts 319°
2026-04-11 07:03 -22.80464 133.01695 28876 ft 485 kts 319°
2026-04-11 07:03 -22.77899 132.99281 29298 ft 484 kts 319°
2026-04-11 07:04 -22.75375 132.96905 29708 ft 483 kts 319°
2026-04-11 07:04 -22.72824 132.94505 30116 ft 482 kts 319°
2026-04-11 07:04 -22.70301 132.92129 30515 ft 481 kts 319°
2026-04-11 07:04 -22.67782 132.89761 30905 ft 481 kts 319°
2026-04-11 07:05 -22.65244 132.87373 31294 ft 480 kts 319°
2026-04-11 07:05 -22.62730 132.85008 31670 ft 479 kts 319°
2026-04-11 07:05 -22.60213 132.82642 32043 ft 478 kts 319°
2026-04-11 07:05 -22.57737 132.80312 32405 ft 477 kts 319°
2026-04-11 07:06 -22.55225 132.77949 32783 ft 477 kts 319°
2026-04-11 07:06 -22.52714 132.75589 33150 ft 476 kts 319°
2026-04-11 07:06 -22.50235 132.73256 33513 ft 475 kts 319°
2026-04-11 07:06 -22.47751 132.70917 33863 ft 475 kts 319°
2026-04-11 07:07 -22.45256 132.68568 34009 ft 477 kts 319°
2026-04-11 07:07 -22.40295 132.63902 34000 ft 467 kts 319°
2026-04-11 07:08 -22.35405 132.59299 34001 ft 466 kts 319°
2026-04-11 07:08 -22.30499 132.54681 34000 ft 469 kts 319°
2026-04-11 07:09 -22.25579 132.50050 34000 ft 468 kts 319°
2026-04-11 07:09 -22.20685 132.45441 34000 ft 468 kts 319°
2026-04-11 07:10 -22.13318 132.38496 34000 ft 468 kts 318°
2026-04-11 07:10 -22.08422 132.33879 34000 ft 468 kts 319°
2026-04-11 07:11 -22.03515 132.29250 34000 ft 468 kts 319°
2026-04-11 07:11 -21.98626 132.24637 34000 ft 468 kts 319°
2026-04-11 07:12 -21.93589 132.20171 33999 ft 468 kts 326°
2026-04-11 07:12 -21.87745 132.17302 34001 ft 467 kts 347°
2026-04-11 07:13 -21.81280 132.16545 33996 ft 468 kts
2026-04-11 07:13 -21.78045 132.17129 33997 ft 468 kts 17°
2026-04-11 07:13 -21.74963 132.18320 34008 ft 468 kts 22°
2026-04-11 07:14 -21.69414 132.21896 33993 ft 468 kts 45°
2026-04-11 07:14 -21.65441 132.27379 34003 ft 468 kts 58°
2026-04-11 07:15 -21.63937 132.30492 33995 ft 468 kts 69°
2026-04-11 07:15 -21.62914 132.33833 34004 ft 468 kts 75°
2026-04-11 07:15 -21.61191 132.40562 34000 ft 468 kts 74°
2026-04-11 07:16 -21.59390 132.47237 34000 ft 468 kts 74°
2026-04-11 07:16 -21.57573 132.53947 34000 ft 468 kts 74°
2026-04-11 07:17 -21.55755 132.60645 34000 ft 468 kts 74°
2026-04-11 07:17 -21.53933 132.67343 34000 ft 468 kts 73°
2026-04-11 07:18 -21.52106 132.74045 34000 ft 468 kts 73°
2026-04-11 07:18 -21.50288 132.80702 34000 ft 468 kts 73°
2026-04-11 07:19 -21.48451 132.87415 34000 ft 468 kts 73°
2026-04-11 07:19 -21.46619 132.94099 34000 ft 468 kts 73°
2026-04-11 07:20 -21.44780 133.00800 34000 ft 468 kts 73°
2026-04-11 07:20 -21.42946 133.07471 34000 ft 468 kts 73°
2026-04-11 07:21 -21.41107 133.14146 34000 ft 468 kts 73°
2026-04-11 07:21 -21.39264 133.20828 34000 ft 468 kts 73°
2026-04-11 07:22 -21.37304 133.27472 33998 ft 468 kts 69°
2026-04-11 07:22 -21.34003 133.33438 33999 ft 467 kts 47°
2026-04-11 07:23 -21.29078 133.37927 33999 ft 468 kts 32°
2026-04-11 07:23 -21.26124 133.39478 33995 ft 468 kts 18°
2026-04-11 07:23 -21.22974 133.40337 34008 ft 468 kts 11°
2026-04-11 07:24 -21.16494 133.40801 33993 ft 468 kts 352°
2026-04-11 07:24 -21.10164 133.39104 34003 ft 468 kts 344°
2026-04-11 07:25 -21.03916 133.37210 33999 ft 468 kts 344°
2026-04-11 07:25 -20.97641 133.35336 34000 ft 468 kts 344°
2026-04-11 07:26 -20.91340 133.33449 34000 ft 468 kts 344°
2026-04-11 07:26 -20.85076 133.31570 34000 ft 468 kts 344°
2026-04-11 07:27 -20.78787 133.29684 34001 ft 468 kts 344°
2026-04-11 07:27 -20.72510 133.27803 34000 ft 468 kts 344°
2026-04-11 07:28 -20.66234 133.25923 34000 ft 468 kts 344°
2026-04-11 07:28 -20.59947 133.24042 34000 ft 468 kts 344°
2026-04-11 07:29 -20.53660 133.22160 34000 ft 468 kts 344°
2026-04-11 07:29 -20.47375 133.20281 34000 ft 468 kts 344°
2026-04-11 07:30 -20.41110 133.18410 34000 ft 468 kts 344°
2026-04-11 07:30 -20.34809 133.16528 34000 ft 468 kts 344°
2026-04-11 07:31 -20.28562 133.14665 34000 ft 468 kts 344°
2026-04-11 07:31 -20.22278 133.12793 34000 ft 468 kts 344°
2026-04-11 07:32 -20.15981 133.10918 34000 ft 468 kts 344°
2026-04-11 07:32 -20.09701 133.09050 34000 ft 468 kts 344°
2026-04-11 07:33 -20.03431 133.07187 34000 ft 468 kts 344°
2026-04-11 07:33 -19.97135 133.05316 34000 ft 468 kts 344°
2026-04-11 07:34 -19.90869 133.03458 34000 ft 468 kts 344°
2026-04-11 07:34 -19.84586 133.01594 34000 ft 468 kts 344°
2026-04-11 07:35 -19.78279 132.99725 34000 ft 468 kts 344°
2026-04-11 07:35 -19.72024 132.97875 34000 ft 468 kts 344°
2026-04-11 07:36 -19.65744 132.96017 34000 ft 468 kts 344°
2026-04-11 07:36 -19.59441 132.94154 34000 ft 468 kts 344°
2026-04-11 07:37 -19.53154 132.92297 34000 ft 468 kts 344°
2026-04-11 07:37 -19.46856 132.90440 34000 ft 468 kts 344°
2026-04-11 07:38 -19.40579 132.88590 34000 ft 468 kts 344°
2026-04-11 07:38 -19.34296 132.86739 34000 ft 468 kts 344°
2026-04-11 07:39 -19.27983 132.84880 34000 ft 468 kts 344°
2026-04-11 07:39 -19.21704 132.83034 34000 ft 468 kts 344°
2026-04-11 07:40 -19.15421 132.81187 34000 ft 468 kts 344°
2026-04-11 07:40 -19.09139 132.79344 34000 ft 468 kts 344°
2026-04-11 07:41 -19.02849 132.77498 34000 ft 468 kts 344°
2026-04-11 07:41 -18.96574 132.75659 34000 ft 468 kts 344°
2026-04-11 07:42 -18.90291 132.73817 34000 ft 468 kts 344°
2026-04-11 07:43 -18.80837 132.71051 34000 ft 468 kts 344°
2026-04-11 07:43 -18.74576 132.69222 34000 ft 468 kts 344°
2026-04-11 07:44 -18.68276 132.67380 34000 ft 468 kts 344°
2026-04-11 07:44 -18.61987 132.65544 34000 ft 468 kts 344°
2026-04-11 07:45 -18.55714 132.63715 34000 ft 468 kts 344°
2026-04-11 07:45 -18.49423 132.61881 34000 ft 468 kts 344°
2026-04-11 07:46 -18.43147 132.60054 34000 ft 468 kts 344°
2026-04-11 07:46 -18.36874 132.58228 34000 ft 468 kts 344°
2026-04-11 07:47 -18.30568 132.56393 34000 ft 468 kts 344°
2026-04-11 07:47 -18.24305 132.54575 34000 ft 468 kts 344°
2026-04-11 07:48 -18.18018 132.52750 34000 ft 468 kts 344°
2026-04-11 07:48 -18.11737 132.50928 34000 ft 468 kts 344°
2026-04-11 07:49 -18.05429 132.49098 34000 ft 468 kts 344°
2026-04-11 07:49 -17.99158 132.47282 34000 ft 468 kts 344°
2026-04-11 07:50 -17.92847 132.45454 34000 ft 468 kts 344°
2026-04-11 07:50 -17.86560 132.43637 34000 ft 468 kts 344°
2026-04-11 07:51 -17.80267 132.41817 34000 ft 468 kts 344°
2026-04-11 07:51 -17.73981 132.40001 34000 ft 468 kts 344°
2026-04-11 07:52 -17.67683 132.38184 34000 ft 468 kts 344°
2026-04-11 07:52 -17.61414 132.36375 34000 ft 468 kts 344°
2026-04-11 07:53 -17.55102 132.34557 34000 ft 468 kts 345°
2026-04-11 07:53 -17.48819 132.32747 34000 ft 468 kts 345°
2026-04-11 07:54 -17.42523 132.30936 34000 ft 468 kts 345°
2026-04-11 07:54 -17.36240 132.29129 34000 ft 468 kts 345°
2026-04-11 07:55 -17.29930 132.27315 34000 ft 468 kts 345°
2026-04-11 07:55 -17.23639 132.25508 34000 ft 468 kts 345°
2026-04-11 07:56 -17.17382 132.23712 34000 ft 468 kts 345°
2026-04-11 07:56 -17.11089 132.21909 34000 ft 468 kts 345°
2026-04-11 07:57 -17.04802 132.20106 34000 ft 468 kts 345°
2026-04-11 07:57 -16.98485 132.18297 34000 ft 468 kts 345°
2026-04-11 07:58 -16.92203 132.16499 34000 ft 468 kts 345°
2026-04-11 07:58 -16.85920 132.14703 34000 ft 468 kts 345°
2026-04-11 07:59 -16.79616 132.12901 34000 ft 468 kts 345°
2026-04-11 07:59 -16.73354 132.11113 34000 ft 468 kts 345°
2026-04-11 08:00 -16.67037 132.09311 34000 ft 468 kts 345°
2026-04-11 08:00 -16.60742 132.07515 34000 ft 468 kts 345°
2026-04-11 08:01 -16.54474 132.05730 34000 ft 468 kts 345°
2026-04-11 08:01 -16.48175 132.03935 34000 ft 468 kts 345°
2026-04-11 08:02 -16.41865 132.02139 34001 ft 468 kts 345°
2026-04-11 08:02 -16.35568 132.00348 34001 ft 468 kts 345°
2026-04-11 08:03 -16.29276 131.98560 34000 ft 468 kts 345°
2026-04-11 08:03 -16.22992 131.96776 34001 ft 468 kts 345°
2026-04-11 08:04 -16.16683 131.94984 34000 ft 468 kts 345°
2026-04-11 08:04 -16.10388 131.93199 34000 ft 468 kts 345°
2026-04-11 08:05 -16.04119 131.91423 34000 ft 468 kts 345°
2026-04-11 08:05 -15.97796 131.89632 34000 ft 468 kts 345°
2026-04-11 08:06 -15.91507 131.87851 34000 ft 468 kts 345°
2026-04-11 08:06 -15.85228 131.86075 34000 ft 468 kts 345°
2026-04-11 08:07 -15.78949 131.84299 34000 ft 468 kts 345°
2026-04-11 08:07 -15.72650 131.82520 34000 ft 468 kts 345°
2026-04-11 08:08 -15.63191 131.79849 34000 ft 468 kts 345°
2026-04-11 08:08 -15.56924 131.78081 34000 ft 468 kts 345°
2026-04-11 08:09 -15.50618 131.76303 34000 ft 468 kts 345°
2026-04-11 08:09 -15.44335 131.74533 34000 ft 468 kts 345°
2026-04-11 08:10 -15.38038 131.72760 34000 ft 468 kts 345°
2026-04-11 08:10 -15.31752 131.70991 34000 ft 468 kts 345°
2026-04-11 08:11 -15.25443 131.69218 34000 ft 468 kts 345°
2026-04-11 08:11 -15.19127 131.67444 34000 ft 468 kts 345°
2026-04-11 08:12 -15.12841 131.65678 34000 ft 468 kts 345°
2026-04-11 08:12 -15.06547 131.63911 34000 ft 468 kts 345°
2026-04-11 08:13 -15.00264 131.62149 34000 ft 468 kts 345°
2026-04-11 08:13 -14.93956 131.60381 34000 ft 468 kts 345°
2026-04-11 08:14 -14.87757 131.58644 34000 ft 468 kts 345°
2026-04-11 08:14 -14.81504 131.56894 34000 ft 468 kts 345°
2026-04-11 08:15 -14.75212 131.55133 34000 ft 468 kts 345°
2026-04-11 08:15 -14.68911 131.53371 34000 ft 468 kts 345°
2026-04-11 08:16 -14.62590 131.51604 34000 ft 468 kts 345°
2026-04-11 08:16 -14.56289 131.49843 34000 ft 468 kts 345°
2026-04-11 08:17 -14.50006 131.48090 34000 ft 468 kts 345°
2026-04-11 08:17 -14.43713 131.46333 34000 ft 468 kts 345°
2026-04-11 08:18 -14.37421 131.44580 34000 ft 468 kts 345°
2026-04-11 08:18 -14.31120 131.42824 34000 ft 468 kts 345°
2026-04-11 08:19 -14.24816 131.41069 34000 ft 468 kts 345°
2026-04-11 08:19 -14.18507 131.39313 34000 ft 468 kts 345°
2026-04-11 08:20 -14.12217 131.37563 34000 ft 468 kts 345°
2026-04-11 08:20 -14.05933 131.35817 34000 ft 468 kts 345°
2026-04-11 08:21 -13.99610 131.34059 34000 ft 468 kts 345°
2026-04-11 08:21 -13.93324 131.32314 34000 ft 468 kts 345°
2026-04-11 08:22 -13.87047 131.30572 34000 ft 468 kts 345°
2026-04-11 08:22 -13.80730 131.28819 34000 ft 468 kts 345°
2026-04-11 08:23 -13.74434 131.27074 34000 ft 468 kts 345°
2026-04-11 08:23 -13.68146 131.25331 34000 ft 468 kts 345°
2026-04-11 08:24 -13.61830 131.23583 34000 ft 468 kts 345°
2026-04-11 08:24 -13.55534 131.21840 34000 ft 468 kts 345°
2026-04-11 08:25 -13.49261 131.20105 34000 ft 468 kts 345°
2026-04-11 08:25 -13.42954 131.18362 34000 ft 468 kts 345°
2026-04-11 08:26 -13.36659 131.16623 34000 ft 468 kts 345°
2026-04-11 08:26 -13.30367 131.14885 34000 ft 468 kts 345°
2026-04-11 08:27 -13.24069 131.13147 34000 ft 468 kts 345°
2026-04-11 08:27 -13.17768 131.11409 34000 ft 468 kts 345°
2026-04-11 08:28 -13.11432 131.09662 34000 ft 468 kts 345°
2026-04-11 08:28 -13.05135 131.07927 34000 ft 468 kts 345°
2026-04-11 08:29 -12.98865 131.06200 34000 ft 468 kts 345°
2026-04-11 08:29 -12.92535 131.04457 34000 ft 468 kts 345°
2026-04-11 08:30 -12.86226 131.02722 34000 ft 468 kts 345°
2026-04-11 08:30 -12.79935 131.00992 34001 ft 468 kts 345°
2026-04-11 08:31 -12.73638 130.99262 34001 ft 468 kts 345°
2026-04-11 08:31 -12.67367 130.97539 34001 ft 468 kts 345°
2026-04-11 08:32 -12.61033 130.95799 34001 ft 468 kts 345°
2026-04-11 08:32 -12.54734 130.94070 34001 ft 468 kts 345°
2026-04-11 08:33 -12.48463 130.92351 34001 ft 468 kts 345°
2026-04-11 08:33 -12.42164 130.90622 34001 ft 468 kts 344°
2026-04-11 08:34 -12.35924 130.88647 34001 ft 468 kts 342°
2026-04-11 08:34 -12.29702 130.86598 34000 ft 468 kts 342°
2026-04-11 08:35 -12.23510 130.84578 34001 ft 468 kts 342°
2026-04-11 08:35 -12.17292 130.82553 34001 ft 468 kts 342°
2026-04-11 08:36 -12.11040 130.80524 34001 ft 468 kts 342°
2026-04-11 08:36 -12.04805 130.78500 34001 ft 468 kts 342°
2026-04-11 08:37 -11.98602 130.76491 34001 ft 468 kts 342°
2026-04-11 08:37 -11.92382 130.74477 34001 ft 468 kts 342°
2026-04-11 08:38 -11.86166 130.72464 34001 ft 468 kts 342°
2026-04-11 08:38 -11.79960 130.70456 34001 ft 468 kts 342°
2026-04-11 08:39 -11.73718 130.68439 34001 ft 468 kts 342°
2026-04-11 08:39 -11.67519 130.66435 34001 ft 468 kts 342°
2026-04-11 08:40 -11.61277 130.64420 34001 ft 468 kts 342°
2026-04-11 08:40 -11.55066 130.62415 34001 ft 468 kts 342°
2026-04-11 08:41 -11.48851 130.60408 34001 ft 468 kts 342°
2026-04-11 08:41 -11.42650 130.58409 34001 ft 468 kts 342°
2026-04-11 08:42 -11.36382 130.56389 34001 ft 468 kts 342°
2026-04-11 08:43 -11.27051 130.53383 34001 ft 468 kts 342°
2026-04-11 08:43 -11.20847 130.51386 34001 ft 468 kts 342°
2026-04-11 08:44 -11.14604 130.49376 34001 ft 468 kts 342°
2026-04-11 08:44 -11.08402 130.47382 34001 ft 468 kts 342°
2026-04-11 08:45 -11.02174 130.45381 34001 ft 468 kts 342°
2026-04-11 08:45 -10.95937 130.43379 34001 ft 468 kts 342°
2026-04-11 08:46 -10.89722 130.41383 34001 ft 468 kts 342°
2026-04-11 08:46 -10.83526 130.39395 34001 ft 468 kts 342°
2026-04-11 08:47 -10.77295 130.37396 34001 ft 468 kts 342°
2026-04-11 08:47 -10.71051 130.35396 34001 ft 468 kts 342°
2026-04-11 08:48 -10.64852 130.33409 34001 ft 468 kts 342°
2026-04-11 08:48 -10.58639 130.31418 34001 ft 468 kts 342°
2026-04-11 08:49 -10.52393 130.29419 34001 ft 468 kts 342°
2026-04-11 08:49 -10.46204 130.27438 34001 ft 468 kts 342°
2026-04-11 08:50 -10.39972 130.25444 34001 ft 468 kts 342°
2026-04-11 08:50 -10.33754 130.23456 34001 ft 468 kts 342°
2026-04-11 08:51 -10.27541 130.21471 34001 ft 468 kts 342°
2026-04-11 08:51 -10.21296 130.19475 34001 ft 468 kts 342°
2026-04-11 08:52 -10.11986 130.16502 34001 ft 468 kts 342°
2026-04-11 08:52 -10.05769 130.14517 34001 ft 468 kts 342°
2026-04-11 08:53 -9.99519 130.12524 34001 ft 468 kts 342°
2026-04-11 08:53 -9.93296 130.10539 34001 ft 468 kts 342°
2026-04-11 08:54 -9.87095 130.08563 34001 ft 468 kts 342°
2026-04-11 08:54 -9.80857 130.06575 34001 ft 468 kts 342°
2026-04-11 08:55 -9.74617 130.04587 34001 ft 468 kts 342°
2026-04-11 08:55 -9.68393 130.02605 34001 ft 468 kts 342°
2026-04-11 08:56 -9.62181 130.00627 34001 ft 468 kts 342°
2026-04-11 08:56 -9.55964 129.98650 34001 ft 468 kts 342°
2026-04-11 08:57 -9.49762 129.96677 34001 ft 468 kts 342°
2026-04-11 08:57 -9.43499 129.94687 34001 ft 468 kts 342°
2026-04-11 08:58 -9.37294 129.92714 34001 ft 468 kts 342°
2026-04-11 08:58 -9.31078 129.90739 34002 ft 468 kts 342°
2026-04-11 08:59 -9.24860 129.88766 34002 ft 468 kts 342°
2026-04-11 08:59 -9.18605 129.86780 34002 ft 468 kts 342°
2026-04-11 09:00 -9.12382 129.84805 34002 ft 468 kts 342°
2026-04-11 09:00 -9.06187 129.82840 34002 ft 468 kts 342°
2026-04-11 09:01 -8.99971 129.80870 34002 ft 468 kts 342°
2026-04-11 09:01 -8.93718 129.78886 34002 ft 468 kts 342°
2026-04-11 09:02 -8.87508 129.76920 34002 ft 468 kts 342°
2026-04-11 09:02 -8.81288 129.74950 34002 ft 468 kts 342°
2026-04-11 09:03 -8.75036 129.72969 34002 ft 468 kts 342°
2026-04-11 09:03 -8.68829 129.71005 34001 ft 468 kts 342°
2026-04-11 09:04 -8.62569 129.69025 34001 ft 468 kts 342°
2026-04-11 09:04 -8.56370 129.67064 34001 ft 468 kts 342°
2026-04-11 09:05 -8.50118 129.65129 34001 ft 468 kts 343°
2026-04-11 09:05 -8.43875 129.63248 34001 ft 468 kts 343°
2026-04-11 09:06 -8.37585 129.61345 34001 ft 468 kts 343°
2026-04-11 09:06 -8.31331 129.59453 34001 ft 468 kts 343°
2026-04-11 09:07 -8.25117 129.57571 34000 ft 468 kts 343°
2026-04-11 09:07 -8.18846 129.55675 34000 ft 468 kts 343°
2026-04-11 09:08 -8.12586 129.53781 34000 ft 468 kts 343°
2026-04-11 09:08 -8.06332 129.51889 34000 ft 468 kts 343°
2026-04-11 09:09 -8.00110 129.50008 34000 ft 468 kts 343°
2026-04-11 09:09 -7.93849 129.48116 34001 ft 468 kts 343°
2026-04-11 09:10 -7.87614 129.46231 34000 ft 468 kts 343°
2026-04-11 09:10 -7.81370 129.44345 34001 ft 468 kts 343°
2026-04-11 09:11 -7.75118 129.42458 34001 ft 468 kts 343°
2026-04-11 09:11 -7.68856 129.40567 34001 ft 468 kts 343°
2026-04-11 09:12 -7.62599 129.38678 34001 ft 468 kts 343°
2026-04-11 09:12 -7.56355 129.36795 34001 ft 468 kts 343°
2026-04-11 09:13 -7.50084 129.34903 34001 ft 468 kts 343°
2026-04-11 09:13 -7.43839 129.33020 34001 ft 468 kts 343°
2026-04-11 09:14 -7.37601 129.31140 34000 ft 468 kts 343°
2026-04-11 09:14 -7.31343 129.29254 34000 ft 468 kts 343°
2026-04-11 09:15 -7.25091 129.27371 34000 ft 468 kts 343°
2026-04-11 09:15 -7.18828 129.25485 34000 ft 468 kts 343°
2026-04-11 09:16 -7.12554 129.23596 34000 ft 468 kts 343°
2026-04-11 09:16 -7.06345 129.21729 34000 ft 468 kts 343°
2026-04-11 09:17 -7.00057 129.19836 34000 ft 468 kts 343°
2026-04-11 09:17 -6.93829 129.17963 34000 ft 468 kts 343°
2026-04-11 09:18 -6.87589 129.16086 34000 ft 468 kts 343°
2026-04-11 09:18 -6.81297 129.14194 34000 ft 468 kts 343°
2026-04-11 09:19 -6.75068 129.12321 34000 ft 468 kts 343°
2026-04-11 09:19 -6.68830 129.10448 34001 ft 468 kts 343°
2026-04-11 09:20 -6.62574 129.08568 34001 ft 468 kts 343°
2026-04-11 09:20 -6.56292 129.06682 34001 ft 468 kts 343°
2026-04-11 09:21 -6.50059 129.04811 34001 ft 468 kts 343°
2026-04-11 09:21 -6.43809 129.02934 34001 ft 468 kts 343°
2026-04-11 09:22 -6.37549 129.01056 34001 ft 468 kts 343°
2026-04-11 09:22 -6.31284 128.99176 34001 ft 468 kts 343°
2026-04-11 09:23 -6.25055 128.97308 34001 ft 468 kts 343°
2026-04-11 09:23 -6.18797 128.95432 34001 ft 468 kts 343°
2026-04-11 09:24 -6.12540 128.93556 34001 ft 468 kts 343°
2026-04-11 09:24 -6.06287 128.91682 34001 ft 468 kts 343°
2026-04-11 09:25 -6.00023 128.89806 34000 ft 468 kts 343°
2026-04-11 09:25 -5.93803 128.87942 34000 ft 468 kts 343°
2026-04-11 09:26 -5.87548 128.86069 34000 ft 468 kts 343°
2026-04-11 09:26 -5.81263 128.84187 34000 ft 468 kts 343°
2026-04-11 09:27 -5.75007 128.82315 34000 ft 468 kts 343°
2026-04-11 09:27 -5.68785 128.80452 34000 ft 468 kts 343°
2026-04-11 09:28 -5.62509 128.78575 34000 ft 468 kts 343°
2026-04-11 09:28 -5.56259 128.76704 34001 ft 468 kts 343°
2026-04-11 09:29 -5.50019 128.74838 34000 ft 468 kts 343°
2026-04-11 09:29 -5.43764 128.72969 34001 ft 468 kts 343°
2026-04-11 09:30 -5.37496 128.71095 34001 ft 468 kts 343°
2026-04-11 09:30 -5.31250 128.69229 34001 ft 468 kts 343°
2026-04-11 09:31 -5.25027 128.67369 34001 ft 468 kts 343°
2026-04-11 09:31 -5.18737 128.65491 34001 ft 468 kts 343°
2026-04-11 09:32 -5.12526 128.63635 34001 ft 468 kts 343°
2026-04-11 09:32 -5.06274 128.61768 34001 ft 468 kts 343°
2026-04-11 09:33 -4.99997 128.59894 34001 ft 468 kts 343°
2026-04-11 09:33 -4.93725 128.58022 34001 ft 468 kts 343°
2026-04-11 09:34 -4.87509 128.56166 34001 ft 468 kts 343°
2026-04-11 09:34 -4.81251 128.54300 34001 ft 468 kts 343°
2026-04-11 09:35 -4.74975 128.52428 34000 ft 468 kts 343°
2026-04-11 09:35 -4.68689 128.50552 34001 ft 468 kts 343°
2026-04-11 09:36 -4.62445 128.48691 34001 ft 468 kts 343°
2026-04-11 09:36 -4.56192 128.46826 34000 ft 468 kts 343°
2026-04-11 09:37 -4.49891 128.44948 34001 ft 468 kts 343°
2026-04-11 09:37 -4.43670 128.43094 34001 ft 468 kts 343°
2026-04-11 09:38 -4.37395 128.41223 34000 ft 468 kts 343°
2026-04-11 09:38 -4.31131 128.39357 34001 ft 468 kts 343°
2026-04-11 09:39 -4.24846 128.37486 34001 ft 468 kts 343°
2026-04-11 09:39 -4.18589 128.35622 34001 ft 468 kts 343°
2026-04-11 09:40 -4.12343 128.33762 34001 ft 468 kts 343°
2026-04-11 09:40 -4.06077 128.31897 34001 ft 468 kts 343°
2026-04-11 09:41 -3.99816 128.30032 34001 ft 468 kts 343°
2026-04-11 09:41 -3.93535 128.28163 34001 ft 468 kts 343°
2026-04-11 09:42 -3.87266 128.26297 34001 ft 468 kts 343°
2026-04-11 09:43 -3.77912 128.23515 34001 ft 468 kts 343°
2026-04-11 09:43 -3.71645 128.21651 34001 ft 468 kts 343°
2026-04-11 09:44 -3.65399 128.19743 33999 ft 468 kts 340°
2026-04-11 09:44 -3.59453 128.17097 34000 ft 468 kts 330°
2026-04-11 09:45 -3.53909 128.13696 34001 ft 468 kts 328°
2026-04-11 09:45 -3.48389 128.10251 34001 ft 468 kts 328°
2026-04-11 09:46 -3.42874 128.06782 34001 ft 468 kts 327°
2026-04-11 09:46 -3.37352 128.03294 34001 ft 468 kts 327°
2026-04-11 09:47 -3.31834 127.99801 34001 ft 468 kts 327°
2026-04-11 09:47 -3.26333 127.96313 34001 ft 468 kts 327°
2026-04-11 09:48 -3.20840 127.92829 34001 ft 468 kts 327°
2026-04-11 09:48 -3.15335 127.89337 34001 ft 468 kts 327°
2026-04-11 09:49 -3.09820 127.85838 34001 ft 468 kts 327°
2026-04-11 09:49 -3.04317 127.82346 34002 ft 468 kts 327°
2026-04-11 09:50 -2.98819 127.78857 34002 ft 468 kts 327°
2026-04-11 09:50 -2.93292 127.75350 34001 ft 468 kts 327°
2026-04-11 09:51 -2.87810 127.71872 34001 ft 468 kts 327°
2026-04-11 09:51 -2.82312 127.68385 34001 ft 468 kts 327°
2026-04-11 09:52 -2.76791 127.64883 34001 ft 468 kts 327°
2026-04-11 09:52 -2.71262 127.61376 34001 ft 468 kts 327°
2026-04-11 09:53 -2.65764 127.57890 34001 ft 468 kts 327°
2026-04-11 09:53 -2.60261 127.54401 34000 ft 468 kts 327°
2026-04-11 09:54 -2.54769 127.50918 34000 ft 468 kts 327°
2026-04-11 09:54 -2.49257 127.47424 34000 ft 468 kts 327°
2026-04-11 09:55 -2.43754 127.43935 34000 ft 468 kts 327°
2026-04-11 09:55 -2.38227 127.40434 34000 ft 468 kts 327°
2026-04-11 09:56 -2.32714 127.36940 34000 ft 468 kts 327°
2026-04-11 09:56 -2.27211 127.33453 34000 ft 468 kts 327°
2026-04-11 09:57 -2.21689 127.29955 34000 ft 468 kts 327°
2026-04-11 09:57 -2.16160 127.26475 34000 ft 468 kts 328°
2026-04-11 09:58 -2.10657 127.23014 34000 ft 468 kts 328°
2026-04-11 09:58 -2.05139 127.19544 34001 ft 468 kts 328°
2026-04-11 09:59 -1.99621 127.16073 34001 ft 468 kts 328°
2026-04-11 09:59 -1.94085 127.12591 34001 ft 468 kts 328°
2026-04-11 10:00 -1.88593 127.09136 34001 ft 468 kts 328°
2026-04-11 10:00 -1.83055 127.05653 34002 ft 468 kts 328°
2026-04-11 10:01 -1.79384 127.03345 34002 ft 468 kts 328°